Odiham, United Kingdom

12:37 AM BST on March 27, 2017 (GMT +0100)
Odiham Air Base

Weather History for EGVO - December, 2012

Change the Weather History Date:

Thursday, December 6, 2012

  Actual Average Record
Temperature  
Mean Temperature 33 °F -  
Max Temperature 42 °F - - ()
Min Temperature 24 °F - - ()
Degree Days  
Heating Degree Days 32    
Moisture  
Dew Point 30 °F    
Average Humidity 87    
Maximum Humidity 93    
Minimum Humidity 66    
Precipitation  
Precipitation 0.01 in - - ()
Sea Level Pressure  
Sea Level Pressure 29.88 in    
Wind  
Wind Speed 8 mph ()    
Max Wind Speed 24 mph    
Max Gust Speed 36 mph    
Visibility 8.5 miles    
Events Rain    
T = Trace of Precipitation, MM = Missing Value Source: Averaged Metar Reports

Daily Weather History Graph

Daily Weather History Graph

Search for Another Location

Airport or City:

Trip Planner

Search our weather history database for the weather conditions in past years. The results will help you decide how hot, cold, wet, or windy it might be!

Date:

Astronomy

Dec. 06, 2012 Rise Set
Actual Time 7:52 AM GMT 3:57 PM GMT
Civil Twilight 7:13 AM GMT 4:36 PM GMT
Nautical Twilight 6:31 AM GMT 5:18 PM GMT
Astronomical Twilight 5:50 AM GMT 5:58 PM GMT
Moon No Moon Rise 12:00 PM GMT (12/6)
Length of Visible Light 9h 22m
Length of Day
8h 04m
Waning Gibbous, 52% of the Moon is Illuminated
Dec 6
Waning Gibbous
Dec 6
Last Quarter
Dec 13
New
Dec 20
First Quarter
Dec 28
Full

Hourly Weather History & Observations

Time (GMT) Temp. Windchill Dew Point Humidity Pressure Visibility Wind Dir Wind Speed Gust Speed Precip Events Conditions
12:50 AM 30.2 °F 23.4 °F 24.8 °F 80% 30.04 in 6.2 mi West 6.9 mph - N/A   Unknown
1:50 AM 28.4 °F 23.3 °F 24.8 °F 86% 30.04 in - West 4.6 mph - N/A   Clear
2:50 AM 28 °F - 24 °F 78% 30.08 in 12 mi West 5.8 mph - -  
2:50 AM 28.4 °F 22.2 °F 24.8 °F 86% 30.04 in - West 5.8 mph - N/A   Clear
3:50 AM 26.6 °F 21.2 °F 23.0 °F 86% 30.04 in - WSW 4.6 mph - N/A   Clear
4:50 AM 26.6 °F 21.2 °F 23.0 °F 86% 30.04 in - SSW 4.6 mph - N/A   Clear
5:50 AM 25 °F - 22 °F 86% 30.08 in 9 mi SW 5.8 mph - -   Clear
5:50 AM 24.8 °F 17.9 °F 23.0 °F 93% 30.04 in - SW 5.8 mph - N/A   Clear
6:50 AM 26.6 °F 21.2 °F 24.8 °F 93% 30.04 in - SSW 4.6 mph - N/A   Clear
7:50 AM 24.8 °F 20.5 °F 23.0 °F 93% 30.04 in - SSW 3.5 mph - N/A   Clear
8:50 AM 27 °F - 24 °F 85% 30.09 in 16 mi SSW 3.5 mph - -   Clear
8:50 AM 26.6 °F 22.6 °F 24.8 °F 93% 30.04 in - SSW 3.5 mph - N/A   Clear
9:50 AM 32.0 °F 24.8 °F 26.6 °F 80% 30.04 in - SSW 8.1 mph - N/A   Clear
10:50 AM 32.0 °F 24.2 °F 26.6 °F 80% 30.01 in - South 9.2 mph - N/A   Clear
11:50 AM 35 °F - 28 °F 66% 30.02 in 12 mi South 10.4 mph - -   Partly Cloudy
11:50 AM 35.6 °F 28.0 °F 28.4 °F 75% 29.98 in - South 10.4 mph - N/A   Clear
12:50 PM 35.6 °F 27.1 °F 30.2 °F 81% 29.95 in - South 12.7 mph - N/A   Clear
2:50 PM 37 °F - 34 °F 84% 29.92 in 12 mi South 13.8 mph - -   Partly Cloudy
2:50 PM 37.4 °F 28.9 °F 33.8 °F 87% 29.89 in 6.2 mi South 13.8 mph - N/A   Scattered Clouds
3:50 PM 37.4 °F 29.8 °F 35.6 °F 93% 29.86 in 6.2 mi South 11.5 mph - N/A   Overcast
4:50 PM 37.4 °F 31.4 °F 35.6 °F 93% 29.83 in 6.2 mi South 8.1 mph - N/A   Overcast
5:50 PM 38 °F - 35 °F 85% 29.81 in 14 mi South 11.5 mph - -   Overcast
5:50 PM 37.4 °F 29.8 °F 35.6 °F 93% 29.77 in - South 11.5 mph - N/A   Clear
6:50 PM 39.2 °F 29.8 °F 35.6 °F 87% 29.74 in 6.2 mi SSW 18.4 mph - N/A Rain Light Rain
7:50 PM 39.2 °F 31.6 °F 37.4 °F 93% 29.68 in 6.2 mi South 12.7 mph - N/A Rain Light Rain
8:50 PM 40 °F - 37 °F 86% 29.65 in 12 mi SSW 17.3 mph - - Rain Light Rain
8:50 PM 39.2 °F 30.2 °F 37.4 °F 93% 29.62 in 6.2 mi SSW 17.3 mph - N/A   Overcast
9:50 PM 41.0 °F 32.5 °F 39.2 °F 93% 29.56 in 6.2 mi SSW 17.3 mph - N/A Rain Light Rain
10:50 PM 41.0 °F 30.9 °F 39.2 °F 93% 29.47 in 5.0 mi SSW 24.2 mph 35.7 mph N/A Rain Light Rain
11:50 PM 42 °F - 40 °F 88% 29.50 in 3 mi WSW 20.7 mph - - Rain Rain
11:50 PM 41.0 °F 31.6 °F 39.2 °F 93% 29.47 in - WSW 20.7 mph 33.4 mph N/A Rain Rain